sat.trackr.live / text

‹ back to catalog

STARLINK-35711

NORAD 66595 · 2025-270H

PAYLOAD ACTIVE UNKNOWN

§ Identity

Operator
Country
US
Launch date
2025-11-22
Launch site
AFETR
Launch vehicle
Mass (kg)
RCS (m²)

Purposes: comms

External: N2YO · Heavens-Above · Gunter

§ Orbital elements

Epoch: 2026-09-19T20:41:02.446368Z

Period
94.27 min
Inclination
43.0011°
Eccentricity
0.0001944
Mean motion
15.27595779 rev/d
Perigee alt
481.7 km
Apogee alt
484.3 km
Semi-major
6,861.1 km
B*
5.4572e-4
RAAN
39.4493°
Arg perigee
275.1721°
Mean anomaly
84.8909°
Rev number
4,751

§ Raw data

STARLINK-357111 66595U 25270H   26262.86183387  .00014792  00000+0  54572-3 0  99972 66595  43.0011  39.4493 0001944 275.1721  84.8909 15.27595779 47519

JSON: /api/v1/satellites/66595 · /tle

For live sub-satellite position, see the globe view (requires WebGL).

§ Visibility from observer

Set your observer location to see the next 7 days of passes ≥ 10°. The values pass through the URL so the page stays shareable.

No JS? Fill the form by hand. The geolocation button needs JavaScript.